Regional Weather Roundup
Issued by NWS

Home | Current Version | Previous Version | Text Only | Print | Product List | Glossary On
Versions: 1 2 3 4 5 6 7 8 9 10 11 12 13 14 15 16 17 18 19 20 21 22 23 24 25 26 27 28 29 30 31 32 33 34 35 36 37 38 39 40 41 42 43 44 45 46 47 48 49 50
000
ASUS44 KJAN 310510
RWRMS

MISSISSIPPI HOURLY WEATHER ROUNDUP
NATIONAL WEATHER SERVICE JACKSON MS
1200 AM CDT FRI JUL 31 2015

NOTE: "FAIR: INDICATES FEW OR NO CLOUDS BELOW 12,000 FEET WITH NO
SIGNIFICANT WEATHER AND/OR OBSTRUCTIONS TO VISIBILITY.

MSZ001>002-007>008-010>013-018>021-025>028-034>036-310600-
NORTHWEST MISSISSIPPI

CITY           SKY/WX    TMP DP  RH WIND       PRES   REMARKS
CLARKSDALE     FAIR      72  68  88 N5        30.06F
CLEVELAND      FAIR      74  68  82 NE6       30.03F
GREENWOOD      CLEAR     70  64  81 N6        30.03F
GREENVILLE     PTCLDY    73  67  81 N8        30.03F
OLIVE BRANCH     N/A     73  64  73 N7        30.08F
OXFORD         FAIR      68  64  88 CALM      30.08F
TUNICA         CLEAR     72  68  88 NE3       30.07F
$$

MSZ003>006-009-014>017-022>024-029>033-037>039-310600-
NORTHEAST MISSISSIPPI

CITY           SKY/WX    TMP DP  RH WIND       PRES   REMARKS
COLUMBUS AFB   CLEAR     74  66  74 N6        30.01F
CORINTH          N/A     70  63  78 NW5       30.06F
GOLDN TRIANGLE CLEAR     73  63  68 N8        30.01F
STARKVILLE     FAIR      73  64  73 N3        30.03F
TUPELO         CLEAR     71  64  78 NE8       30.05F
$$

MSZ040-058-310600-
CENTRAL MISSISSIPPI

CITY           SKY/WX    TMP DP  RH WIND       PRES   REMARKS
JACKSON INTL   PTCLDY    82  69  64 NE8       30.00F
JACKSON HAWKNS PTCLDY    83  68  60 N8        30.01F
MERIDIAN KEY   PTCLDY    79  69  71 N8        29.99F
MERIDIAN NAS   PTCLDY    79  65  62 N7        29.99F
VICKSBURG      PTCLDY    82  67  60 N9        30.01F
$$

MSZ059>079-310600-
SOUTH MISSISSIPPI

CITY           SKY/WX    TMP DP  RH WIND       PRES   REMARKS
BROOKHAVEN       N/A     75  73  94 NW3       30.02F
HATTIESBURG    MOCLDY    76  74  93 NW6       29.97F
MCCOMB         PTCLDY    76  73  91 N7        29.99F
NATCHEZ        MOCLDY    75  73  94 CALM      30.01F
PINE BELT      MOCLDY    75  72  88 W3        29.99S
$$

MSZ080>082-310600-
COASTAL MISSISSIPPI

CITY           SKY/WX    TMP DP  RH WIND       PRES   REMARKS
BILOXI         CLOUDY    76  76  97 VRB2      29.94F
PASCAGOULA     CLOUDY    75  74  96 CALM      29.94F
GULFPORT       CLOUDY    76  73  91 CALM      29.94F
$$


USA.gov is the U.S. government's official web portal to all federal, state and local government web resources and services.